Location: Linz
(48.3300°N, 14.3000°E)
Time: 08:57:57
(UTC+01:00)

YUBILEINY - Pass Details

Date: 24 February 2019
Orbit: 1479 x 1508 km, 82.5° (Epoch: 25 March)

Event Time Altitude Azimuth Distance (km) Brightness Sun altitude
Rises 03:50:58 0° 168° (SSE) 4,587 ? -30.8°
Reaches altitude 10° 03:53:53 10° 164° (SSE) 3,610 ? -30.4°
Maximum altitude 04:02:15 55° 90° (E) 1,733 ? -29.1°
Drops below altitude 10° 04:10:40 10° 16° (NNE) 3,640 ? -27.8°
Sets 04:13:37 0° 13° (NNE) 4,627 ? -27.3°
